Home   Weather   Koror   Past weeks

Flag for Palau Past Weather in Koror, Palau — Yesterday and Last 2 Weeks

Now
84 °F

Mostly cloudy.


Feels Like: 96 °F
Forecast: 80 / 86 °F
Wind: 5 mph from Southeast

Location: Koror / Palau Island

Current Time: Dec 8, 2016 at 3:22:28 pm

Latest Report: Dec 8, 2016 at 2:50 pm


Visibility: 15 mi

Pressure: 29.70 "Hg

Humidity: 84%

Dew Point: 79 °F

Location of KororLocation

Past Weather in Koror — Graph

°F

Koror Temperature Yesterday

Maximum temperature yesterday: 86 °F (at 11:50 am)
Minimum temperature yesterday: 75 °F (at 2:50 am)
Average temperature yesterday: 80 °F

High & Low Weather Summary for the Past Weeks

 TemperatureHumidityPressure
High88 °F (Nov 24, 11:50 am)100% (Nov 23, 2:50 pm)29.86 "Hg (Nov 23, 2:50 pm)
Low75 °F (Dec 5, 8:54 am)75% (Nov 25, 1:50 pm)29.67 "Hg (Nov 23, 1:50 pm)
Average81 °F92%29.78 "Hg
* Reported Nov 23 1:50 pm — Dec 8 1:50 pm, Koror, Weather by CustomWeather, © 2016

Note: Actual official high and low records may vary slightly from our data, if they occured in-between our weather recording intervals... More about our weather records

Advertising

Koror Weather History for the Previous 24 Hours

Scroll right to see more
 ConditionsComfort  
Time TempWeatherWind HumidityBarometerVisibility
1:50 pm
Thu, Dec 8
86 °FPartly sunny.8 mph79%29.70 "Hg15 mi
12:50 pm86 °FBroken clouds.7 mph84%29.71 "Hg15 mi
11:50 am86 °FBroken clouds.7 mph84%29.73 "Hg15 mi
10:50 am86 °FBroken clouds.6 mph84%29.75 "Hg15 mi
9:50 am84 °FBroken clouds.No wind89%29.77 "Hg15 mi
8:50 am82 °FBroken clouds.No wind94%29.78 "Hg15 mi
7:50 am81 °FCloudy.5 mph89%29.78 "Hg14 mi
6:50 am79 °FCloudy.6 mph89%29.76 "Hg14 mi
5:50 am77 °FOvercast.6 mph94%29.75 "Hg14 mi
3:50 am77 °FMostly cloudy.5 mph94%29.73 "Hg14 mi
2:50 am77 °FMostly cloudy.5 mph94%29.73 "Hg14 mi
1:50 am77 °FMostly cloudy.7 mph94%29.74 "Hg14 mi
12:50 am77 °FMostly cloudy.7 mph94%29.76 "Hg14 mi
11:50 pm
Wed, Dec 7
77 °FMostly cloudy.5 mph94%29.78 "Hg14 mi
10:50 pm77 °FSprinkles. Mostly cloudy.3 mph94%29.79 "Hg12 mi
9:55 pm77 °FSprinkles. Mostly cloudy.No wind94%29.80 "Hg12 mi
8:50 pm77 °FMostly cloudy.No wind94%29.79 "Hg14 mi
7:50 pm77 °FMostly cloudy.No wind94%29.76 "Hg14 mi
6:50 pm79 °FMostly cloudy.6 mph94%29.75 "Hg14 mi
5:50 pm79 °FMostly cloudy.8 mph94%29.74 "Hg14 mi
4:50 pm81 °FSprinkles. Mostly cloudy.6 mph89%29.74 "Hg12 mi
3:50 pm79 °FSprinkles. Mostly cloudy.6 mph100%29.72 "Hg10 mi
Weather by CustomWeather, © 2016

See weather overviewHow to use our weather pages